Temperature
15 15 15 15 16 16 16 16 16 16 15 15 15 15 14 14 14 14 14 14 14 14 14 14 14 14 14 13 13 13 13 12 12 12 12 12 11 11 11 11 11 11 11
15 15 15 15 16 16 16 16 16 15 15 15 15 15 14 14 14 14 14 14 14 14 14 14 14 14 13 13 13 13 12 12 12 12 12 11 11 11 11 11 11 11 11
15 15 15 15 15 15 15 15 15 15 15 15 15 14 14 14 14 14 14 14 14 14 14 14 14 13 13 13 13 13 12 12 12 11 11 11 11 11 11 11 11 11 10
15 15 15 15 15 15 15 15 15 15 15 15 15 14 14 14 14 14 14 14 14 14 14 13 13 13 13 13 13 12 12 12 11 11 11 11 11 10 10 10 10 10 10
14 15 15 15 15 15 15 15 15 15 15 15 14 14 14 14 14 14 14 14 14 14 13 13 13 13 13 13 12 12 12 11 11 11 11 10 10 10 10 10 10 10 10
14 14 14 15 15 15 15 15 15 15 14 14 14 14 14 14 14 14 14 14 14 13 13 13 13 13 13 12 12 12 11 11 11 11 10 10 10 10 10 10 10 9 10
14 14 14 14 14 15 15 15 15 14 14 14 14 13 13 13 14 14 13 13 13 13 13 13 13 13 12 12 12 11 11 11 10 10 10 10 10 10 9 9 9 9 9
13 14 14 14 14 15 15 15 14 14 14 14 13 13 13 13 13 13 13 13 13 13 13 13 12 12 12 12 11 11 11 10 10 10 10 9 9 9 9 9 9 9 9
13 14 14 14 14 14 14 14 14 14 14 14 13 13 13 13 13 13 13 13 13 13 12 12 12 12 11 11 11 11 10 10 10 10 9 9 9 9 9 9 9 9 9
13 13 13 14 14 14 14 14 14 14 14 14 13 13 13 13 13 13 13 13 13 12 12 12 12 11 11 11 11 10 10 10 9 9 9 9 9 9 8 8 8 8 8
12 13 13 13 13 13 14 14 14 14 14 14 13 13 13 13 13 13 12 12 12 12 12 12 11 11 11 11 10 10 10 9 9 9 9 8 8 8 8 8 8 8 8
12 12 12 13 13 13 13 13 13 13 13 13 13 13 13 13 13 13 13 12 12 12 12 11 11 11 10 10 10 9 9 9 8 8 8 8 8 8 7 7 7 8 8
12 12 12 12 12 13 13 13 13 13 13 13 13 13 13 13 13 13 12 12 11 11 11 11 11 10 10 10 9 9 9 8 8 8 7 7 7 7 7 7 7 7 7
12 12 12 12 12 12 12 12 12 12 12 12 12 12 12 12 12 12 12 11 11 11 10 10 10 10 9 9 9 8 8 8 7 7 7 7 6 6 6 6 6 6 6
11 11 12 12 12 12 12 12 12 12 12 12 12 12 12 12 12 12 11 11 11 10 10 10 10 10 9 9 8 8 7 7 7 6 6 6 6 6 6 6 6 6 6
11 11 11 11 11 11 11 11 11 11 11 11 11 11 11 11 11 11 11 10 10 10 10 10 10 9 9 8 7 7 7 6 6 6 5 5 5 5 5 5 5 5 5
11 11 11 11 11 11 11 11 11 11 11 11 11 11 11 10 10 10 10 10 10 9 9 9 9 8 8 7 7 6 6 6 5 5 5 5 5 4 4 4 4 5 5
10 10 10 10 10 10 10 10 10 10 10 10 10 10 10 10 9 9 9 9 9 9 9 8 8 7 7 6 6 5 5 5 5 4 4 4 4 4 4 4 4 4 4
10 10 10 10 10 10 10 10 9 9 9 9 9 9 9 9 9 9 9 9 8 8 8 8 7 7 6 6 5 5 5 4 4 4 4 4 4 3 3 3 3 4 4
9 9 9 9 9 9 9 9 9 8 8 8 8 8 8 8 8 8 8 8 8 8 7 7 7 6 6 5 5 4 4 4 4 4 3 3 3 3 3 3 3 3 3
8 8 8 8 8 8 8 8 8 8 8 8 8 8 8 8 7 7 7 7 7 7 7 7 6 6 5 5 4 4 4 3 3 3 3 3 3 3 3 3 3 3 3
7 7 7 7 7 7 7 7 7 7 7 7 7 7 7 7 7 6 6 6 6 6 6 6 6 5 5 4 4 3 3 3 2 3 2 2 2 2 2 2 2 2 2
6 6 6 6 6 6 6 6 6 6 6 6 6 6 6 6 6 6 6 6 6 6 6 5 5 5 5 4 3 3 3 3 2 2 2 2 2 2 2 2 2 2 2
5 5 5 5 5 5 5 5 5 5 5 5 5 5 5 5 5 5 5 5 5 5 5 5 4 4 4 3 3 3 2 2 2 1 1 1 2 2 1 1 1 1 2
4 4 4 4 4 4 4 4 4 4 4 4 4 4 4 4 5 5 4 4 4 4 4 4 3 3 3 3 2 2 2 1 1 1 1 1 1 1 1 1 1 1 1
3 3 3 3 3 3 3 3 3 3 3 3 3 3 3 3 4 4 4 4 4 4 3 3 3 3 2 2 2 2 1 1 1 1 1 1 1 0 1 1 1 1 1
Wind_Speed
10 9 9 11 11 12 10 8 7 7 6 6 6 6 5 6 7 9 9 11 10 8 6 5 4 3 3 3 2 2 1 1 2 3 3 2 1 1 1 2 2 2 2
11 10 9 8 10 12 12 10 8 6 5 5 5 6 6 6 6 8 9 10 10 8 7 5 4 3 3 2 2 2 1 1 1 1 2 2 2 2 2 3 3 3 3
15 12 10 9 10 13 12 9 7 5 4 4 5 4 4 5 5 7 8 8 9 8 7 6 4 3 2 2 2 2 1 1 1 1 1 1 1 1 2 3 4 4 4
19 13 10 10 12 12 9 6 5 5 4 4 4 3 2 3 4 5 6 8 8 7 6 6 4 2 2 2 1 1 1 1 1 1 0 0 0 1 2 3 4 5 5
21 14 10 9 13 8 6 8 5 5 5 4 4 3 2 2 2 4 5 6 7 7 6 5 4 2 1 1 1 0 1 1 1 0 2 2 1 2 2 3 4 5 5
19 15 10 10 11 8 8 7 6 5 4 5 3 2 2 2 2 3 4 5 6 7 6 5 4 3 2 2 2 1 0 1 1 2 1 1 2 3 3 4 4 5 5
17 14 11 11 11 10 10 10 6 6 4 4 3 1 1 1 2 2 3 3 4 6 7 6 5 5 4 3 2 1 1 1 2 2 2 2 2 3 4 4 5 5 6
16 14 13 12 11 9 10 9 7 5 4 4 4 3 1 2 1 1 2 3 3 4 5 6 6 6 6 5 3 2 2 2 3 3 3 3 3 4 5 4 5 5 6
14 13 13 12 11 10 10 10 9 8 6 4 4 4 4 4 2 1 1 2 4 3 3 5 6 7 7 6 4 3 2 3 3 4 3 4 4 4 4 4 4 5 6
11 12 12 11 11 9 10 9 8 6 7 6 3 3 3 4 4 2 1 1 2 3 4 4 5 7 8 7 5 3 2 2 3 3 4 4 4 4 4 5 6 6 6
10 10 10 10 11 9 9 10 8 8 6 6 5 4 3 2 2 3 3 2 1 2 3 4 5 6 8 8 6 4 2 2 3 3 4 5 5 5 5 6 6 6 6
8 9 9 9 9 9 9 10 9 10 8 7 6 5 5 4 4 4 4 4 3 2 2 3 4 5 8 8 6 4 3 2 2 3 4 5 5 5 6 6 6 6 6
6 9 8 9 9 8 9 8 8 9 9 9 8 6 5 5 4 4 4 4 3 2 2 2 3 5 7 8 7 5 4 2 2 2 3 4 4 5 5 6 6 7 7
7 8 8 8 8 8 8 8 7 7 7 8 8 7 5 5 4 5 5 5 3 3 3 4 2 4 7 8 8 7 5 3 2 2 3 3 4 4 5 5 6 7 7
5 7 7 7 7 7 7 8 7 8 8 8 7 7 6 5 4 4 4 5 6 5 6 5 4 4 6 8 8 8 6 4 3 3 2 2 2 3 4 4 5 6 7
6 6 6 6 6 6 6 6 6 6 7 7 6 7 6 5 5 5 5 5 5 6 5 4 4 3 5 6 8 8 7 5 4 4 3 2 1 1 3 4 5 6 6
5 6 6 6 6 6 6 6 6 7 7 6 6 7 7 6 6 5 5 5 5 5 5 2 2 3 4 5 5 6 6 5 5 5 4 3 1 0 2 3 5 5 6
4 4 4 4 4 4 5 6 6 6 7 8 8 7 8 6 7 6 5 6 5 5 5 5 3 3 4 5 5 4 4 4 4 4 4 4 3 1 1 2 4 4 6
2 3 3 3 4 4 5 5 6 6 7 8 8 9 8 8 8 6 6 6 5 4 4 4 4 3 2 3 3 2 2 2 3 4 4 4 4 3 1 2 3 4 6
2 1 2 3 3 4 4 4 5 6 6 7 7 8 8 9 9 9 8 8 6 6 5 5 4 3 3 3 3 3 3 2 2 2 4 4 4 3 2 1 2 3 5
3 1 0 1 2 3 3 4 4 5 6 6 6 6 7 9 10 9 7 8 8 7 6 6 5 4 4 4 5 4 4 2 2 2 2 2 2 1 1 2 2 2 3
4 3 2 2 2 2 3 4 4 4 5 5 5 5 5 7 9 12 12 12 12 9 9 7 6 6 7 5 4 4 4 3 3 3 3 2 2 2 2 3 3 2 3
5 4 3 3 3 4 4 5 5 3 4 5 5 5 4 6 8 6 9 11 12 13 12 9 8 8 7 8 8 6 5 4 4 4 4 3 2 2 3 4 4 2 2
4 4 4 3 3 4 6 6 5 3 3 4 5 6 6 6 7 8 6 6 6 6 8 7 7 7 7 7 8 8 7 4 2 1 3 3 2 2 1 3 4 3 2
4 4 4 4 4 5 6 6 5 2 3 4 4 5 6 6 10 12 8 7 6 4 5 7 8 8 9 11 10 7 6 4 3 3 3 4 3 2 1 2 4 3 2
5 5 5 4 5 5 7 7 6 3 4 4 4 5 8 9 11 13 9 9 9 7 6 6 5 6 5 8 12 8 8 5 3 4 5 5 3 3 2 1 1 2 2
Wind_Direction
166 165 166 166 167 167 170 173 177 182 192 206 216 214 215 204 191 191 196 199 198 198 200 205 221 241 261 271 275 269 282 284 252 236 221 231 262 278 289 289 315 331 330
169 170 170 171 174 176 179 181 184 183 192 201 212 213 211 201 193 193 198 201 203 204 206 213 227 246 264 272 276 279 266 263 272 246 234 249 252 263 279 284 289 289 290
173 173 174 176 180 181 181 180 184 183 188 196 208 205 194 193 190 193 196 198 204 209 212 214 224 237 260 279 280 289 291 261 186 185 204 245 236 266 286 293 295 286 279
176 174 176 179 180 179 178 176 177 178 188 187 188 192 182 181 190 188 185 191 194 198 206 211 210 223 256 274 284 305 311 59 137 150 188 233 193 311 306 299 297 295 282
178 175 178 179 177 177 179 184 178 173 177 179 180 185 192 194 191 180 170 178 182 183 185 190 194 203 231 230 235 216 114 45 49 308 250 235 244 279 308 317 313 305 296
179 175 176 176 175 176 180 180 172 172 170 169 165 172 208 214 192 182 173 166 166 169 169 163 159 160 164 146 127 125 87 15 350 334 321 283 281 285 290 300 311 317 313
179 175 177 177 178 182 184 176 164 167 168 151 129 117 340 303 216 203 170 156 155 161 157 156 152 142 131 126 107 74 12 341 346 336 328 313 301 301 298 298 304 310 317
180 178 177 180 180 179 177 175 161 159 166 163 150 141 208 318 309 209 177 169 165 150 146 152 148 139 130 115 94 69 22 357 334 318 305 304 302 296 300 302 309 316 318
182 180 179 179 180 179 182 182 175 167 173 181 173 159 169 210 232 304 217 179 171 161 152 147 148 144 139 128 108 77 45 9 336 317 310 304 304 309 307 310 317 325 325
183 182 179 179 181 182 183 185 182 175 168 179 188 193 180 161 166 200 291 228 181 176 172 156 147 146 144 133 120 102 73 21 347 338 337 338 326 321 323 324 319 320 322
185 182 181 179 181 184 185 184 182 181 179 180 179 171 177 183 172 168 209 227 219 204 179 167 155 150 149 144 135 122 96 50 24 4 357 2 1 356 347 346 341 336 333
184 183 180 181 184 186 188 190 190 189 190 187 188 181 174 177 190 183 198 206 209 212 184 172 169 162 158 152 144 135 116 75 30 2 4 16 16 13 6 2 359 355 350
183 187 184 186 186 190 191 189 192 195 193 192 197 201 199 199 176 177 179 187 199 201 178 187 187 172 165 157 153 149 133 98 51 18 13 27 33 23 13 5 360 357 354
181 182 182 187 189 188 189 189 194 198 196 198 201 198 203 207 191 188 176 169 184 208 211 210 180 181 171 167 165 158 143 125 101 67 56 56 39 23 14 11 6 359 355
173 177 180 181 183 185 188 186 196 199 194 197 197 197 203 203 193 192 178 176 179 201 220 203 188 183 174 170 169 163 157 152 143 130 111 85 52 30 23 19 7 358 356
158 168 179 181 181 185 188 192 200 202 198 199 193 195 205 202 190 190 189 191 192 193 208 190 186 171 171 172 172 166 169 170 173 169 160 147 106 32 21 15 1 356 354
154 165 176 180 185 190 189 194 201 199 203 205 199 200 206 194 194 195 190 189 195 190 205 181 146 151 162 169 164 170 175 177 184 188 191 183 171 63 11 6 359 3 358
153 160 164 171 180 190 193 198 206 208 208 211 208 204 207 197 197 192 190 195 197 191 187 188 176 172 174 176 168 171 174 180 187 201 204 196 197 208 313 348 354 2 356
120 137 154 173 188 200 205 208 211 214 216 216 210 205 203 196 201 196 192 194 191 187 178 177 177 169 160 154 156 165 163 171 196 210 214 211 213 216 248 313 338 353 350
81 134 179 195 206 211 215 219 216 218 220 219 215 208 203 203 204 196 196 195 185 182 177 172 171 170 166 155 158 177 191 194 204 203 216 215 211 206 226 266 321 345 347
32 34 18 235 227 219 220 223 220 222 221 222 219 214 209 207 206 202 200 194 184 186 182 184 183 174 179 171 187 177 185 176 207 196 196 219 201 200 227 255 284 321 339
13 16 1 318 283 270 260 247 235 226 223 219 222 221 212 208 208 209 209 201 193 189 192 192 195 196 196 186 168 168 160 161 222 203 177 210 183 209 233 241 253 283 323
360 356 344 325 301 289 279 264 252 236 226 226 224 218 218 214 205 201 206 205 206 205 198 191 197 201 187 185 171 171 177 180 200 179 161 201 191 212 228 233 237 258 300
343 333 322 313 305 302 298 286 279 264 244 238 230 220 215 212 206 194 191 194 198 203 201 199 200 199 191 180 179 177 173 153 114 151 162 191 195 209 216 234 240 242 252
331 323 318 315 307 304 301 295 289 260 253 252 245 234 225 221 216 204 195 195 199 206 205 194 192 190 189 185 170 141 143 153 184 202 184 176 178 173 195 243 250 242 240
313 312 309 303 293 291 293 292 287 261 253 255 250 239 232 231 224 214 204 199 205 202 180 174 173 168 169 180 180 173 167 166 167 200 191 170 163 152 200 264 269 273 265
Height
1514 1518 1521 1525 1528 1532 1535 1538 1541 1543 1545 1547 1548 1550 1551 1551 1552 1553 1553 1554 1554 1554 1553 1553 1552 1552 1551 1550 1550 1549 1548 1548 1547 1547 1546 1545 1544 1544 1543 1542 1541 1540 1540
1511 1515 1519 1522 1526 1530 1533 1536 1539 1541 1544 1545 1547 1548 1549 1550 1551 1551 1552 1552 1552 1552 1552 1552 1551 1551 1550 1549 1548 1548 1547 1546 1546 1545 1544 1544 1543 1542 1541 1540 1540 1539 1538
1508 1512 1516 1520 1524 1528 1531 1534 1537 1540 1542 1543 1545 1546 1547 1548 1549 1550 1550 1551 1551 1551 1551 1550 1550 1549 1548 1548 1547 1546 1545 1545 1544 1543 1543 1542 1541 1541 1540 1539 1538 1537 1536
1504 1509 1513 1517 1521 1525 1528 1531 1534 1537 1539 1541 1543 1544 1545 1546 1547 1548 1548 1549 1549 1549 1549 1548 1548 1547 1547 1546 1545 1544 1544 1543 1542 1542 1541 1540 1540 1539 1538 1537 1536 1535 1534
1500 1505 1509 1514 1518 1522 1525 1529 1532 1534 1536 1538 1540 1542 1543 1544 1545 1545 1546 1546 1546 1546 1546 1546 1546 1545 1545 1544 1543 1543 1542 1541 1541 1540 1539 1538 1538 1537 1536 1535 1533 1533 1532
1496 1500 1505 1510 1514 1518 1522 1525 1528 1531 1534 1536 1538 1539 1541 1542 1542 1543 1543 1543 1543 1544 1544 1544 1543 1543 1543 1542 1541 1541 1540 1539 1539 1538 1537 1536 1535 1534 1533 1532 1531 1530 1529
1492 1496 1501 1506 1510 1514 1518 1521 1524 1528 1530 1533 1535 1536 1537 1538 1539 1539 1540 1540 1540 1541 1541 1541 1541 1541 1540 1540 1539 1538 1538 1537 1536 1536 1535 1534 1533 1532 1531 1530 1529 1528 1527
1487 1491 1496 1501 1505 1510 1514 1517 1520 1523 1526 1529 1531 1533 1534 1536 1535 1536 1536 1537 1537 1537 1537 1538 1538 1538 1537 1537 1536 1536 1535 1534 1534 1533 1532 1531 1530 1529 1528 1527 1526 1525 1524
1483 1488 1492 1497 1501 1505 1509 1512 1516 1519 1521 1524 1527 1529 1530 1530 1531 1532 1532 1533 1534 1534 1534 1534 1534 1534 1534 1534 1533 1533 1532 1531 1530 1530 1529 1528 1527 1526 1525 1524 1523 1522 1521
1479 1484 1488 1493 1497 1501 1505 1508 1511 1515 1517 1519 1522 1524 1526 1526 1527 1527 1528 1529 1530 1530 1530 1531 1531 1531 1531 1530 1530 1529 1529 1528 1527 1526 1526 1524 1523 1522 1521 1520 1519 1518 1517
1475 1480 1484 1489 1493 1497 1501 1504 1507 1510 1512 1514 1516 1518 1520 1521 1522 1523 1523 1525 1525 1526 1526 1527 1527 1527 1527 1526 1526 1525 1525 1524 1524 1523 1522 1521 1520 1519 1518 1516 1515 1514 1513
1471 1476 1480 1485 1489 1493 1496 1500 1502 1505 1507 1509 1512 1513 1514 1516 1516 1517 1518 1519 1520 1521 1521 1522 1522 1522 1522 1522 1522 1521 1521 1520 1520 1519 1518 1517 1516 1515 1514 1513 1512 1511 1510
1466 1471 1476 1480 1484 1488 1492 1495 1497 1499 1502 1504 1506 1508 1509 1510 1511 1512 1513 1513 1515 1515 1516 1517 1517 1517 1518 1518 1518 1517 1517 1516 1516 1515 1514 1513 1512 1511 1510 1509 1508 1507 1506
1463 1468 1472 1476 1480 1484 1487 1489 1492 1494 1496 1498 1500 1502 1503 1504 1506 1507 1507 1508 1509 1510 1510 1511 1512 1512 1513 1513 1513 1513 1513 1512 1512 1511 1510 1510 1509 1508 1507 1505 1505 1503 1503
1460 1465 1468 1472 1475 1479 1482 1484 1486 1488 1490 1492 1494 1495 1497 1498 1499 1500 1501 1502 1504 1504 1504 1505 1506 1507 1508 1509 1508 1508 1508 1508 1507 1507 1507 1506 1505 1504 1503 1502 1501 1500 1499
1457 1461 1465 1468 1470 1473 1476 1478 1480 1483 1484 1485 1487 1489 1491 1492 1493 1494 1494 1496 1497 1498 1498 1499 1500 1501 1502 1503 1503 1503 1503 1503 1503 1502 1502 1502 1501 1500 1499 1499 1498 1496 1495
1454 1458 1461 1463 1466 1468 1471 1473 1475 1476 1478 1479 1480 1482 1483 1485 1486 1487 1488 1489 1490 1491 1492 1492 1494 1495 1496 1497 1497 1498 1498 1498 1498 1498 1498 1498 1497 1497 1496 1495 1494 1493 1492
1451 1454 1457 1459 1461 1463 1465 1467 1468 1470 1471 1472 1474 1475 1477 1478 1479 1480 1481 1482 1483 1485 1486 1486 1488 1489 1489 1491 1492 1492 1493 1493 1493 1494 1494 1494 1493 1493 1492 1492 1491 1489 1489
1448 1450 1453 1455 1456 1458 1460 1461 1462 1463 1465 1466 1467 1468 1469 1471 1471 1472 1474 1475 1476 1478 1479 1480 1481 1482 1483 1484 1486 1487 1487 1488 1488 1489 1489 1490 1490 1489 1489 1488 1488 1486 1486
1446 1448 1449 1451 1452 1453 1454 1455 1456 1457 1458 1458 1459 1460 1461 1463 1464 1466 1466 1467 1469 1471 1472 1473 1474 1475 1477 1478 1479 1480 1481 1482 1483 1484 1485 1485 1486 1485 1485 1485 1485 1484 1483
1444 1445 1446 1447 1448 1448 1449 1449 1450 1450 1451 1451 1452 1453 1453 1455 1457 1459 1460 1461 1462 1464 1465 1466 1467 1468 1470 1471 1473 1474 1476 1477 1477 1479 1479 1480 1481 1481 1481 1481 1481 1481 1480
1442 1442 1442 1443 1443 1443 1444 1444 1444 1444 1444 1444 1445 1446 1447 1449 1450 1451 1453 1455 1456 1457 1458 1459 1460 1461 1463 1465 1467 1469 1470 1471 1472 1474 1474 1475 1476 1477 1477 1478 1478 1477 1477
1439 1439 1439 1439 1438 1438 1438 1438 1438 1438 1438 1438 1439 1440 1441 1442 1444 1445 1446 1447 1449 1450 1452 1453 1454 1455 1457 1459 1461 1463 1464 1466 1468 1469 1470 1470 1471 1472 1473 1474 1474 1474 1474
1437 1436 1435 1434 1433 1433 1433 1432 1432 1432 1432 1433 1433 1434 1435 1436 1437 1439 1439 1440 1441 1443 1445 1446 1447 1450 1452 1454 1455 1457 1459 1461 1463 1464 1465 1466 1467 1468 1469 1470 1470 1470 1470
1433 1432 1431 1430 1429 1428 1428 1427 1427 1426 1426 1427 1427 1428 1429 1429 1431 1432 1433 1433 1434 1436 1437 1439 1441 1443 1445 1447 1449 1451 1453 1455 1456 1458 1460 1461 1462 1463 1465 1466 1466 1467 1467
1430 1428 1427 1426 1425 1424 1423 1422 1422 1421 1420 1420 1421 1421 1422 1423 1424 1425 1425 1426 1427 1429 1431 1433 1435 1436 1438 1441 1443 1445 1447 1449 1451 1453 1454 1456 1457 1459 1461 1461 1462 1463 1464